• en Suisse
  • Liste des pays
  • À 7 jours
  • Température de l'eau
  • Carte satellitaire
  • Carte météo
  • Widgets météo
  • user-avatar
    Se connecter

    Météo par heure à Bukavu

    Ce jour, 19 Février, Lundi

    Heure Température Précipitation Vent Pression Humidité
    00:00 +22°C° 0 mm 1 m/s 687 mmHg 96%
    01:00 +22°C° 0 mm 1 m/s 686 mmHg 96%
    02:00 +22°C° 0 mm 1 m/s 686 mmHg 97%
    03:00 +21°C° 0,1 mm 1 m/s 686 mmHg 97%
    04:00 +19°C° 0,1 mm 0 m/s 687 mmHg 98%
    05:00 +19°C° 0,1 mm 0 m/s 687 mmHg 98%
    06:00 +20°C° 0,1 mm 0 m/s 687 mmHg 96%
    07:00 +20°C° 0,1 mm 0 m/s 688 mmHg 94%
    08:00 +23°C° 0,1 mm 1 m/s 688 mmHg 92%
    09:00 +24°C° 0,6 mm 1 m/s 688 mmHg 86%
    10:00 +26°C° 0,6 mm 1 m/s 688 mmHg 79%
    11:00 +28°C° 0,6 mm 1 m/s 689 mmHg 73%
    12:00 +28°C° 1,5 mm 1 m/s 688 mmHg 72%
    13:00 +28°C° 1,5 mm 1 m/s 687 mmHg 72%
    14:00 +28°C° 1,5 mm 1 m/s 687 mmHg 71%
    15:00 +28°C° 0,5 mm 1 m/s 687 mmHg 71%
    16:00 +28°C° 0,5 mm 1 m/s 686 mmHg 71%
    17:00 +27°C° 0,5 mm 1 m/s 686 mmHg 71%
    18:00 +26°C° 0,2 mm 1 m/s 686 mmHg 78%
    19:00 +24°C° 0,2 mm 1 m/s 686 mmHg 84%
    20:00 +22°C° 0,2 mm 1 m/s 686 mmHg 90%
    21:00 +22°C° 0,1 mm 1 m/s 686 mmHg 90%
    22:00 +21°C° 0,1 mm 1 m/s 686 mmHg 90%
    23:00 +21°C° 0,1 mm 1 m/s 686 mmHg 89%

    Demain, 20 Février, Mardi

    Heure Température Précipitation Vent Pression Humidité
    00:00 +21°C° 0 mm 1 m/s 686 mmHg 91%
    01:00 +21°C° 0 mm 1 m/s 686 mmHg 92%
    02:00 +20°C° 0 mm 1 m/s 685 mmHg 93%
    03:00 +20°C° 0,1 mm 1 m/s 685 mmHg 93%
    04:00 +20°C° 0,1 mm 1 m/s 685 mmHg 93%
    05:00 +20°C° 0,1 mm 1 m/s 685 mmHg 94%
    06:00 +21°C° 0,2 mm 1 m/s 686 mmHg 92%
    07:00 +22°C° 0,2 mm 1 m/s 686 mmHg 89%
    08:00 +23°C° 0,2 mm 1 m/s 687 mmHg 87%
    09:00 +24°C° 0 mm 1 m/s 687 mmHg 82%
    10:00 +23°C° 0 mm 0 m/s 687 mmHg 76%
    11:00 +25°C° 0 mm 0 m/s 688 mmHg 71%
    12:00 +29°C° 0 mm 1 m/s 687 mmHg 62%
    13:00 +31°C° 0 mm 1 m/s 687 mmHg 53%
    14:00 +33°C° 0 mm 1 m/s 686 mmHg 44%
    15:00 +32°C° 0,4 mm 1 m/s 686 mmHg 46%
    16:00 +32°C° 0,4 mm 1 m/s 685 mmHg 48%
    17:00 +31°C° 0,4 mm 1 m/s 684 mmHg 50%
    18:00 +29°C° 4,2 mm 2 m/s 685 mmHg 63%
    19:00 +26°C° 4,2 mm 2 m/s 685 mmHg 77%
    20:00 +23°C° 4,2 mm 2 m/s 685 mmHg 90%
    21:00 +23°C° 3,4 mm 2 m/s 686 mmHg 92%
    22:00 +22°C° 3,4 mm 1 m/s 686 mmHg 95%
    23:00 +22°C° 3,4 mm 1 m/s 686 mmHg 97%

    Après-demain, 21 Février, Mercredi

    Heure Température Précipitation Vent Pression Humidité
    00:00 +22°C° 1,1 mm 1 m/s 686 mmHg 97%
    01:00 +22°C° 1,1 mm 1 m/s 685 mmHg 97%
    02:00 +19°C° 1,1 mm 0 m/s 685 mmHg 96%
    03:00 +19°C° 1 mm 0 m/s 685 mmHg 96%
    04:00 +19°C° 1 mm 0 m/s 685 mmHg 96%
    05:00 +19°C° 1 mm 0 m/s 685 mmHg 96%
    06:00 +19°C° 1 mm 0 m/s 686 mmHg 96%
    07:00 +19°C° 1 mm 0 m/s 686 mmHg 96%
    08:00 +20°C° 1 mm 0 m/s 687 mmHg 95%
    09:00 +21°C° 0,5 mm 0 m/s 687 mmHg 93%
    10:00 +22°C° 0,5 mm 0 m/s 688 mmHg 92%
    11:00 +23°C° 0,5 mm 0 m/s 688 mmHg 90%
    12:00 +26°C° 0,4 mm 1 m/s 687 mmHg 77%
    13:00 +28°C° 0,4 mm 1 m/s 687 mmHg 64%
    14:00 +29°C° 0,4 mm 2 m/s 686 mmHg 52%
    15:00 +29°C° 0 mm 1 m/s 686 mmHg 51%
    16:00 +29°C° 0 mm 1 m/s 685 mmHg 50%
    17:00 +28°C° 0 mm 0 m/s 685 mmHg 49%
    18:00 +25°C° 0 mm 0 m/s 685 mmHg 56%
    19:00 +23°C° 0 mm 0 m/s 685 mmHg 63%
    20:00 +21°C° 0 mm 0 m/s 685 mmHg 71%
    21:00 +21°C° 0 mm 0 m/s 685 mmHg 75%
    22:00 +22°C° 0 mm 1 m/s 685 mmHg 80%
    23:00 +22°C° 0 mm 1 m/s 686 mmHg 85%

    22 Février, Jeudi

    Heure Température Précipitation Vent Pression Humidité
    00:00 +21°C° 0 mm 1 m/s 685 mmHg 88%
    01:00 +21°C° 0 mm 1 m/s 685 mmHg 91%
    02:00 +19°C° 0 mm 0 m/s 684 mmHg 94%
    03:00 +19°C° 0,2 mm 0 m/s 684 mmHg 95%
    04:00 +21°C° 0,2 mm 1 m/s 685 mmHg 97%
    05:00 +20°C° 0,2 mm 1 m/s 685 mmHg 98%
    06:00 +21°C° 0,3 mm 1 m/s 686 mmHg 94%
    07:00 +22°C° 0,3 mm 1 m/s 686 mmHg 90%
    08:00 +23°C° 0,3 mm 1 m/s 687 mmHg 86%
    09:00 +26°C° 0 mm 1 m/s 687 mmHg 74%
    10:00 +28°C° 0 mm 2 m/s 688 mmHg 63%
    11:00 +31°C° 0 mm 2 m/s 688 mmHg 51%
    12:00 +32°C° 0 mm 1 m/s 687 mmHg 47%
    13:00 +34°C° 0 mm 1 m/s 686 mmHg 42%
    14:00 +35°C° 0 mm 1 m/s 685 mmHg 38%
    15:00 +34°C° 0 mm 1 m/s 685 mmHg 42%
    16:00 +32°C° 0 mm 1 m/s 684 mmHg 47%
    17:00 +31°C° 0 mm 1 m/s 684 mmHg 51%
    18:00 +29°C° 0,6 mm 1 m/s 684 mmHg 63%
    19:00 +26°C° 0,6 mm 1 m/s 684 mmHg 74%
    20:00 +24°C° 0,6 mm 1 m/s 685 mmHg 86%
    21:00 +23°C° 3,1 mm 1 m/s 685 mmHg 90%
    22:00 +23°C° 3,1 mm 1 m/s 685 mmHg 94%
    23:00 +22°C° 3,1 mm 1 m/s 686 mmHg 97%

    23 Février, Vendredi

    Heure Température Précipitation Vent Pression Humidité
    00:00 +22°C° 1,2 mm 1 m/s 686 mmHg 98%
    01:00 +22°C° 1,2 mm 1 m/s 685 mmHg 98%
    02:00 +22°C° 1,2 mm 1 m/s 685 mmHg 98%
    03:00 +22°C° 0,7 mm 1 m/s 685 mmHg 98%
    04:00 +21°C° 0,7 mm 1 m/s 685 mmHg 98%
    05:00 +21°C° 0,7 mm 1 m/s 685 mmHg 99%
    06:00 +21°C° 0,3 mm 1 m/s 686 mmHg 97%
    07:00 +22°C° 0,3 mm 1 m/s 687 mmHg 96%
    08:00 +22°C° 0,3 mm 1 m/s 687 mmHg 95%
    09:00 +25°C° 0 mm 2 m/s 688 mmHg 81%
    10:00 +28°C° 0 mm 2 m/s 688 mmHg 68%
    11:00 +30°C° 0 mm 2 m/s 688 mmHg 54%
    12:00 +30°C° 1,1 mm 2 m/s 687 mmHg 61%
    13:00 +29°C° 1,1 mm 1 m/s 686 mmHg 69%
    14:00 +29°C° 1,1 mm 1 m/s 685 mmHg 76%
    15:00 +28°C° 1,1 mm 1 m/s 685 mmHg 80%
    16:00 +27°C° 1,1 mm 1 m/s 685 mmHg 84%
    17:00 +27°C° 1,1 mm 1 m/s 685 mmHg 88%
    18:00 +25°C° 0,1 mm 1 m/s 685 mmHg 89%
    19:00 +22°C° 0,1 mm 0 m/s 685 mmHg 91%
    20:00 +21°C° 0,1 mm 0 m/s 685 mmHg 93%
    21:00 +21°C° 0,9 mm 0 m/s 685 mmHg 94%
    22:00 +20°C° 0,9 mm 0 m/s 686 mmHg 95%
    23:00 +20°C° 0,9 mm 0 m/s 686 mmHg 96%

    24 Février, Samedi

    Heure Température Précipitation Vent Pression Humidité
    00:00 +20°C° 0,7 mm 0 m/s 686 mmHg 97%
    01:00 +20°C° 0,7 mm 0 m/s 686 mmHg 97%
    02:00 +19°C° 0,7 mm 0 m/s 685 mmHg 98%
    03:00 +19°C° 0 mm 0 m/s 685 mmHg 98%
    04:00 +19°C° 0 mm 0 m/s 686 mmHg 98%
    05:00 +19°C° 0 mm 0 m/s 686 mmHg 99%
    06:00 +20°C° 0,1 mm 0 m/s 687 mmHg 97%
    07:00 +20°C° 0,1 mm 0 m/s 687 mmHg 95%
    08:00 +23°C° 0,1 mm 1 m/s 688 mmHg 94%
    09:00 +26°C° 0,2 mm 1 m/s 688 mmHg 81%
    10:00 +28°C° 0,2 mm 1 m/s 688 mmHg 68%
    11:00 +31°C° 0,2 mm 1 m/s 688 mmHg 56%
    12:00 +29°C° 1,3 mm 1 m/s 687 mmHg 66%
    13:00 +28°C° 1,3 mm 1 m/s 686 mmHg 75%
    14:00 +26°C° 1,3 mm 1 m/s 685 mmHg 85%
    15:00 +27°C° 0,1 mm 1 m/s 685 mmHg 82%
    16:00 +25°C° 0,1 mm 0 m/s 685 mmHg 79%
    17:00 +25°C° 0,1 mm 0 m/s 685 mmHg 75%
    18:00 +24°C° 0 mm 0 m/s 685 mmHg 79%
    19:00 +22°C° 0 mm 0 m/s 685 mmHg 84%
    20:00 +21°C° 0 mm 0 m/s 685 mmHg 88%
    21:00 +20°C° 0,1 mm 0 m/s 685 mmHg 88%
    22:00 +20°C° 0,1 mm 0 m/s 686 mmHg 88%
    23:00 +22°C° 0,1 mm 1 m/s 686 mmHg 88%
    Voir plus